TimeCDT,TemperatureF,Dew PointF,Humidity,Sea Level PressureIn,VisibilityMPH,Wind Direction,Wind SpeedMPH,Gust SpeedMPH,PrecipitationIn,Events,Conditions,WindDirDegrees,DateUTC
12:53 AM,37.0,33.1,86,30.38,10.0,Calm,Calm,-,N/A,,Clear,0,2013-03-14 05:53:00
1:53 AM,36.0,30.9,82,30.37,10.0,Calm,Calm,-,N/A,,Clear,0,2013-03-14 06:53:00
2:53 AM,34.0,30.9,89,30.36,10.0,Calm,Calm,-,N/A,,Clear,0,2013-03-14 07:53:00
3:53 AM,33.1,30.0,89,30.34,10.0,Calm,Calm,-,N/A,,Clear,0,2013-03-14 08:53:00
4:53 AM,33.1,30.9,92,30.34,10.0,Calm,Calm,-,N/A,,Clear,0,2013-03-14 09:53:00
5:53 AM,33.1,28.9,85,30.35,10.0,Calm,Calm,-,N/A,,Clear,0,2013-03-14 10:53:00
6:53 AM,32.0,28.9,88,30.36,10.0,Calm,Calm,-,N/A,,Clear,0,2013-03-14 11:53:00
7:53 AM,32.0,28.9,88,30.38,10.0,East,3.5,-,N/A,,Clear,100,2013-03-14 12:53:00
8:53 AM,41.0,32.0,70,30.40,10.0,Calm,Calm,-,N/A,,Clear,0,2013-03-14 13:53:00
9:53 AM,50.0,33.1,52,30.40,8.0,East,3.5,-,N/A,,Clear,90,2013-03-14 14:53:00
10:53 AM,57.0,32.0,39,30.37,10.0,Calm,Calm,-,N/A,,Clear,0,2013-03-14 15:53:00
11:53 AM,61.0,34.0,36,30.35,10.0,WSW,10.4,-,N/A,,Clear,240,2013-03-14 16:53:00
12:53 PM,66.9,37.0,33,30.31,10.0,SW,12.7,17.3,N/A,,Clear,230,2013-03-14 17:53:00
1:53 PM,70.0,39.0,32,30.28,10.0,SSW,6.9,-,N/A,,Clear,210,2013-03-14 18:53:00
2:53 PM,72.0,37.9,29,30.24,10.0,WSW,16.1,20.7,N/A,,Clear,240,2013-03-14 19:53:00
3:53 PM,73.0,39.9,30,30.21,10.0,WSW,12.7,20.7,N/A,,Clear,250,2013-03-14 20:53:00
4:53 PM,73.9,41.0,30,30.19,10.0,West,13.8,-,N/A,,Clear,260,2013-03-14 21:53:00
5:53 PM,73.0,41.0,31,30.18,10.0,West,17.3,-,N/A,,Clear,260,2013-03-14 22:53:00
6:53 PM,71.1,41.0,34,30.17,10.0,WSW,12.7,-,N/A,,Clear,240,2013-03-14 23:53:00
7:53 PM,66.0,41.0,40,30.17,10.0,SW,3.5,-,N/A,,Clear,220,2013-03-15 00:53:00
8:53 PM,57.9,42.1,56,30.17,10.0,Calm,Calm,-,N/A,,Clear,0,2013-03-15 01:53:00
9:53 PM,55.0,43.0,64,30.17,10.0,Calm,Calm,-,N/A,,Clear,0,2013-03-15 02:53:00
10:53 PM,50.0,43.0,77,30.17,10.0,Calm,Calm,-,N/A,,Clear,0,2013-03-15 03:53:00
11:53 PM,46.9,42.1,83,30.18,10.0,Calm,Calm,-,N/A,,Clear,0,2013-03-15 04:53:00